Location: PACMO
(41.3967°N, 90.3760°W)
Time: 07:25:28
(UTC-05:00)

NOAA 19 - Visible Passes

Search period start: 24 July 2014 00:00
Search period end: 03 August 2014 00:00
Orbit: 843 x 864 km, 98.9° (Epoch: 23 July)

Date Brightness Start Highest point End Pass type
(mag) Time Alt. Az. Time Alt. Az. Time Alt. Az.
24 Jul 7.5 01:46:43 10° ENE 01:48:59 12° E 01:50:34 11° ESE visible
24 Jul 5.2 03:24:48 10° NNE 03:30:21 84° WNW 03:32:38 38° SSW visible
24 Jul 7.2 05:07:59 10° NNW 05:10:13 13° WNW 05:12:28 10° W visible
25 Jul 5.2 03:13:46 10° NNE 03:19:19 79° ESE 03:21:24 40° S visible
25 Jul 7.1 04:56:13 10° NNW 04:59:22 16° WNW 05:02:30 10° W visible
26 Jul 5.5 03:02:46 10° NNE 03:08:17 63° ESE 03:10:10 40° SSE visible
26 Jul 6.9 04:44:42 10° NNW 04:48:29 19° WNW 04:52:13 10° WSW visible
27 Jul 5.8 02:51:49 10° NNE 02:57:13 51° E 02:58:55 38° SSE visible
27 Jul 6.6 04:33:19 10° NNW 04:37:35 23° WNW 04:40:59 14° WSW visible
28 Jul 6.1 02:40:55 10° NNE 02:46:08 40° E 02:47:41 33° SE visible
28 Jul 6.4 04:22:00 10° N 04:26:39 29° WNW 04:29:44 17° WSW visible
29 Jul 6.4 02:30:05 10° NNE 02:35:01 32° E 02:36:27 28° SE visible
29 Jul 6.1 04:10:45 10° N 04:15:43 35° WNW 04:18:30 22° WSW visible
30 Jul 6.7 02:19:19 10° NE 02:23:54 26° E 02:25:12 24° ESE visible
30 Jul 5.8 03:59:33 10° N 04:04:45 43° WNW 04:07:16 27° WSW visible
31 Jul 7.0 02:08:40 10° NE 02:12:46 21° E 02:13:58 19° ESE visible
31 Jul 5.5 03:48:24 10° N 03:53:47 53° WNW 03:56:01 33° SW visible
01 Aug 7.2 01:58:10 10° NE 02:01:36 17° E 02:02:43 16° ESE visible
01 Aug 5.3 03:37:17 10° N 03:42:47 67° WNW 03:44:47 40° SW visible
02 Aug 7.5 01:48:00 10° ENE 01:50:25 13° E 01:51:29 12° E visible
02 Aug 5.1 03:26:12 10° NNE 03:31:46 82° WNW 03:33:32 46° SSW visible
02 Aug 7.2 05:09:27 10° NNW 05:11:37 12° WNW 05:13:48 10° W visible
